Lid_Strength_Index
2 2 2 2 2 1 1 1 1 1 1 1 2 2 2 2 2 6 8 6 4 0 -1 5 6 8 8 10 9 8 13 14 12 10 9 8 8 7 7 7 6 7 7 7 6
3 2 2 2 2 2 1 1 1 1 1 2 2 2 2 3 5 7 4 1 -1 -2 4 7 9 10 11 10 9 11 14 13 9 8 8 8 9 9 8 9 8 7 6 6 7
3 2 2 2 2 2 2 2 1 2 1 2 2 2 2 3 7 5 -2 -0 -1 -2 6 7 8 10 13 11 10 11 12 10 9 9 8 8 9 8 9 10 9 8 6 6 6
3 3 2 2 2 2 2 2 2 2 2 2 2 2 2 5 11 6 -2 -2 -2 2 7 9 9 11 13 13 11 13 10 10 8 8 8 8 7 10 9 9 8 7 6 5 6
3 3 2 2 2 2 2 2 2 2 2 2 2 2 5 8 7 3 -2 -1 3 6 8 8 9 12 14 13 13 13 11 10 9 9 9 8 8 8 10 8 7 6 5 6 7
3 3 3 2 2 2 2 2 2 2 2 2 2 2 6 10 4 0 2 2 4 6 6 6 8 10 12 12 13 12 11 10 10 10 10 10 9 9 9 8 8 7 6 6 6
3 4 3 3 2 2 2 1 1 1 2 2 1 3 7 9 4 1 4 6 5 5 5 5 6 9 10 11 11 11 13 12 11 10 10 9 10 10 7 8 8 7 6 6 6
3 3 4 3 3 2 2 1 2 1 1 1 1 5 10 5 4 5 4 4 4 4 4 4 6 9 11 10 11 13 14 16 12 10 9 10 13 9 8 7 7 8 7 6 6
4 3 4 4 3 3 2 2 2 1 1 1 5 7 8 1 3 3 4 4 4 4 6 5 8 10 10 13 15 14 17 16 13 10 10 11 13 10 8 8 9 8 8 6 5
4 4 4 4 4 3 3 3 2 2 2 2 3 7 6 5 4 4 4 3 5 7 8 9 11 12 14 15 18 16 16 15 14 11 11 12 13 11 9 9 9 8 7 5 5
4 4 5 4 4 4 5 7 8 8 6 8 6 6 5 3 3 6 5 6 6 8 12 11 13 15 13 12 12 13 14 14 12 10 11 12 12 11 10 10 10 9 9 7 5
5 5 5 5 5 5 6 9 7 8 10 6 5 5 4 3 5 5 5 8 9 12 11 12 14 11 10 10 11 12 13 13 12 10 11 12 12 11 10 10 9 9 9 9 8
6 6 5 5 5 7 8 6 5 6 10 8 6 6 6 4 6 5 6 8 10 12 12 14 11 9 10 11 11 12 13 13 12 10 11 12 13 12 10 9 8 8 9 8 7
6 6 6 6 8 8 9 6 6 6 13 9 8 7 6 6 9 4 5 8 10 12 12 13 10 11 11 12 11 14 10 11 11 13 16 12 17 14 11 10 9 8 9 9 8
6 6 6 7 11 10 7 7 6 6 19 8 8 5 7 9 9 8 6 8 11 11 12 13 12 12 13 11 10 13 10 11 12 14 16 15 18 16 12 12 10 9 8 8 8
6 6 7 8 10 8 6 7 7 13 19 9 9 11 11 10 9 8 8 8 9 12 12 12 10 11 11 10 10 9 12 13 15 16 19 16 17 16 14 12 11 9 8 6 7
6 6 8 8 11 9 8 8 14 17 9 10 11 11 12 12 11 10 11 12 13 16 16 13 12 10 10 12 11 12 16 20 20 20 18 14 16 15 12 10 9 8 8 7 7
7 7 8 8 10 9 9 12 18 13 12 10 10 10 12 11 11 11 11 13 12 13 16 16 16 12 10 12 13 14 15 18 21 20 18 14 18 14 9 8 7 7 7 7 7
7 10 10 8 8 9 11 17 17 12 11 11 11 13 13 11 11 12 13 12 12 12 16 16 15 10 10 10 10 13 16 14 16 16 19 16 14 10 9 8 8 8 8 8 8
9 10 8 6 7 9 14 16 13 11 10 11 14 11 13 12 12 12 13 10 10 9 11 13 16 11 10 10 10 12 11 16 16 20 21 18 17 16 11 10 8 8 8 8 8
10 12 7 5 7 11 17 14 11 10 10 12 13 13 13 13 13 13 12 10 9 10 10 12 14 13 12 13 13 13 13 13 13 15 20 21 18 12 12 11 10 8 8 8 8
10 13 8 6 10 12 13 11 10 10 9 10 11 12 14 13 14 13 12 11 10 9 12 11 13 16 14 11 10 11 12 12 17 18 16 18 18 9 10 10 8 8 7 6 7
10 11 6 6 13 15 12 11 10 10 11 12 12 12 12 13 16 13 12 10 9 9 10 11 15 17 16 14 12 12 12 12 13 14 17 19 17 8 8 9 8 8 7 6 6
10 12 10 8 10 12 13 11 12 9 10 10 11 11 13 14 12 14 13 10 10 10 7 9 13 15 18 15 13 14 12 11 13 17 17 17 14 11 9 9 8 8 7 7 7
9 11 11 14 12 11 11 11 12 13 10 10 12 12 13 16 15 14 13 12 11 10 10 12 15 14 13 12 12 12 13 12 14 14 17 14 13 11 9 10 9 7 7 7 6
11 12 11 13 10 10 11 12 12 11 11 12 13 13 13 15 14 15 14 13 14 11 13 13 16 14 14 12 12 14 12 12 12 12 13 13 13 10 9 8 8 8 7 7 7
8 7 10 12 11 12 12 11 11 10 10 10 11 12 14 12 11 11 11 11 12 13 14 15 16 16 17 12 13 16 13 12 12 12 12 15 12 9 9 9 8 8 7 7 6